Regional Weather Roundup
Issued by NWS

Home | Current Version | Previous Version | Text Only | Print | Product List | Glossary On
Versions: 1 2 3 4 5 6 7 8 9 10 11 12 13 14 15 16 17 18 19 20 21 22 23 24 25 26 27 28 29 30 31 32 33 34 35 36 37 38 39 40 41 42 43 44 45 46 47 48 49 50
000
ASUS43 KLSX 241807
RWRMO

WEATHER SUMMARY FOR MISSOURI
NATIONAL WEATHER SERVICE SPRINGFIELD MO
1200 PM CST SAT FEB 24 2018

NOTE: "FAIR" INDICATES FEW OR NO CLOUDS BELOW 12,000 FEET WITH NO
       SIGNIFICANT WEATHER AND/OR OBSTRUCTIONS TO VISIBILITY.
       CURRENT SKY AND/OR WEATHER CONDITIONS ARE NOT AVAILABLE FOR
       CHILLICOTHE AND FARMINGTON.

MOZ001>031-035>038-043-044-053-054-241900-
...NORTHERN AND WESTERN MISSOURI...

CITY           SKY/WX    TMP DP  RH WIND       PRES   REMARKS
KANSAS CTY INT CLOUDY    38  37  97 SE17      29.77F WCI  28
6HR MIN TEMP:  33; 6HR MAX TEMP:  38; 6HR PCP:  0.01;

KANSAS C DTWN  CLOUDY    41  37  86 SE7       29.79F
6HR MIN TEMP:  36; 6HR MAX TEMP:  41;

LEE`S SUMMIT   LGT RAIN  39  39 100 SE9       29.78F FOG
6HR MIN TEMP:  35; 6HR MAX TEMP:  38;

ST JOSEPH      CLOUDY    36  36 100 E9        29.76F WCI  29
6HR MIN TEMP:  31; 6HR MAX TEMP:  36;

CHILLICOTHE      N/A     37  36  96 SE10      29.85F WCI  30
6HR MIN TEMP:  33; 6HR MAX TEMP:  37; 6HR PCP:  0.04;

KIRKSVILLE     CLOUDY    33  33 100 SE8       29.88R FOG     WCI  26
6HR MIN TEMP:  31; 6HR MAX TEMP:  33; 6HR PCP:  0.11;


$$
MOZ066>068-077>081-088>096-101>105-241900-
...SOUTHWEST MISSOURI...

CITY           SKY/WX    TMP DP  RH WIND       PRES   REMARKS
SPRINGFIELD    RAIN      52  52 100 CALM      29.78F FOG
6HR MIN TEMP:  49; 6HR MAX TEMP:  52; 6HR PCP:  0.36;

JOPLIN         RAIN      46  46 100 CALM      29.77F VSB 1
6HR MIN TEMP:  40; 6HR MAX TEMP:  46; 6HR PCP:  0.40;

BRANSON        LGT RAIN  50  50 100 E8        29.79F VSB 1/4

$$
MOZ032>034-039>042-045>050-055>058-069>072-241900-
...CENTRAL MISSOURI...

CITY           SKY/WX    TMP DP  RH WIND       PRES   REMARKS
COLUMBIA       FOG       43  43 100 E10       29.84F VSB 1
6HR MIN TEMP:  37; 6HR MAX TEMP:  43;

JEFFERSON CITY CLOUDY    44  43  96 E7        29.85F FOG
6HR MIN TEMP:  39; 6HR MAX TEMP:  44;

ROLLA          PTSUNNY   51  50  96 SE7       29.83F
6HR MIN TEMP:  44; 6HR MAX TEMP:  51; 6HR PCP:  0.02;

SEDALIA        FOG       43  43 100 E8        29.82F VSB 3/4
6HR MIN TEMP:  37; 6HR MAX TEMP:  43;

WHITEMAN AFB   CLOUDY    41  39  93 CALM      29.80R FOG
WARRENSBURG    LGT RAIN  37  37 100 E5        29.82F VSB 1
OSAGE BEACH    CLOUDY    52  50  93 CALM      29.82F

$$
MOZ051-052-059>065-241900-
...EAST CENTRAL MISSOURI...

CITY           SKY/WX    TMP DP  RH WIND       PRES   REMARKS
ST LOUIS INTL  LGT RAIN  45  45 100 E8        29.88F VSB 1/4
6HR MIN TEMP:  41; 6HR MAX TEMP:  45; 6HR PCP:  0.08;

SPIRIT OF STL  CLOUDY    44  44 100 NE6       29.87F FOG
6HR MIN TEMP:  42; 6HR MAX TEMP:  44; 6HR PCP:  0.03;

ST CHARLES       N/A     44  43  96 NE7       29.89F FOG
6HR MIN TEMP:  40; 6HR MAX TEMP:  44; 6HR PCP:  0.01;


$$
MOZ072>076-082>087-097>100-106>115-241900-
...SOUTH CENTRAL AND SOUTHEAST MISSOURI...

CITY           SKY/WX    TMP DP  RH WIND       PRES   REMARKS
CAPE GIRARDEAU CLOUDY    54  52  93 NE6       29.88F
6HR MIN TEMP:  49; 6HR MAX TEMP:  54; 6HR PCP:  0.14;

FARMINGTON     CLOUDY    52  50  93 SE8       29.86F
6HR MIN TEMP:  44; 6HR MAX TEMP:  52; 6HR PCP:  0.45;

POPLAR BLUFF   CLOUDY    52  52 100 E5        29.86F
6HR MIN TEMP:  49; 6HR MAX TEMP:  52; 6HR PCP:  0.12;

WEST PLAINS    LGT RAIN  51  51 100 SE7       29.82F VSB 1/4
6HR MIN TEMP:  48; 6HR MAX TEMP:  51; 6HR PCP:  0.03;


$$



USA.gov is the U.S. government's official web portal to all federal, state and local government web resources and services.